KUIPER-00012

导读

KUIPER-00012是美国亚马逊柯伊伯(Kuiper)低轨宽带卫星星座的一颗卫星,于2025年4月28日由联合发射联盟阿特拉斯V火箭发射入轨,该次任务一次性将27颗柯伊伯卫星送入近地轨道。卫星搭载先进多波束相控阵天线,支持灵活容量分配,依托激光星间链路实现高速互联,目标为全球未覆盖区域提供宽带互联网服务,是SpaceX星链的主要竞争对手之一。

Basic Information
目录编号:
63728
目录名称:
KUIPER-00012
国际标识:
2025-088E
轨道中心:
EARTH
卫星名称:
KUIPER-00012
卫星全名:
KUIPER-00012
卫星状态:
在轨 (已飞行502 天)
发射日期:
2025-04-28 UTC
国别 :
美国 (US)
星等 :
--
This satellite is enrolled in the Space Conjunction Data Service (SCDS) and the current flight risk assessment level is: No High Risk
Orbit Information
数据来源 国际轨道数据 AOE轨道数据
星历时间 2026-09-11T18:08:49+0800
17小时前
查看轨道信息
2026-09-10T07:00:00+0800
2天前
查看轨道信息
半长轴 7007.703km 7007.674km
偏心率 0.0000235 0.0000178
轨道倾角 51.904° 51.903°
近地点辐角 61.941° 107.826°
升交点赤经 334.290° 340.763°
平近点角 298.158° 5.337°
近地点 629.401km 629.412km
远地点 629.731km 629.662km
周期 97.302分钟 97.302分钟
每日圈数 14.799234 14.799326
Detailed Information
使用方式:
暂无
2D Orbit Map
3D Orbit Map
Orbit Altitude Analysis Chart
Orbit Inclination Analysis Chart
Orbit Comprehensive Analysis Chart
View Comprehensive Chart
Miss Distance Evolution Trend with All Objects
Collision Probability Evolution Trend with All Objects